FENGYUN 1C DEB, 30327

Orbit data source: Space-Track

FENGYUN 1C DEB, 30327 is space debris in SSO originally from a launch on Mon, 10 May 1999 UTC launched from the Taiyaun Space Center, China (TSC). Fengyun 1C debris stems from the Chinese weather satellite Fengyun-1C, which was intentionally destroyed by a Chinese anti-satellite missile in 2007. This event dramatically increased the amount of space debris, with thousands of trackable fragments posing hazards to satellites and human spaceflight. The Fengyun 1C debris cloud has become a focal point in discussions about space sustainability and the need for international regulations to prevent the creation of new debris.

Loading next visibility...
Identifier
30327, 1999-025AAN
Orbit
SSO
Country
Flag of CNCN / PRC
Related business
Manufacturer
Unknown
Mission
Spacecraft
Bus & Motor
Unknown
Mass
Unknown
Launch date (UTC)
1999-05-10 (27 years ago)
Launch vehicle
Unknown
Launch site
Taiyaun Space Center, China (TSC)
Object type
Payload
Rocket body
Debris
Shape & HBR
Unknown shape, 0.1 m
Radar Cross Section
Small (<0.1 m²)

Expand to show TLE details & history
Last TLE update: 14 hours ago

TLE from 14 hours ago
0 FENGYUN 1C DEB
1 30327U 99025AAN 26062.18473580  .00004175  00000-0  18975-2 0  9991
2 30327  98.4422 317.6411 0116184 271.4711 242.0384 14.18764901975839
Epoch: 2026-03-03T04:26Z
TLE epoch observation values (Epoch: 2026-03-03T04:26:01.173Z)
Latitude
27.3733°
Longitude
-85.44715°
Altitude
872.911 km
Speed
7.398 km/s
True Right ascension
09h 28m 06s
True Declination
27° 14' 07"
Sunlit
Object was in full shadow at epoch
Visualization orbit readout
Latitude
Unknown
Longitude
Unknown
Altitude
Unknown
Speed
Unknown
Apparent Right ascension
Unknown
Apparent Declination
Unknown
Sunlit
N/A
Visualization observer readout
Local Sidereal Time
21:49:46
Azimuth
Unknown
Elevation
Unknown
Doppler factor
Unknown
Orbital elements
Apogee altitude
910.388 km
Perigee altitude
742.971 km
Semi-major axis
7,204.817 km
Eccentricity
0.01162
Inclination
98.4422°
RAAN
317.6411°
Arg. of periapsis
271.4711°
True anomaly
240.87049°
Mean anomaly
242.0384°
Eccentric anomaly
241.45364°
Mean motion
3.54902 °/min
Orbital period
101.44 mins
BSTAR
0.0018975
Loading maneuver chart data...
Computing Atmospheric mass density...

Documentation

Showing up to 5 results
|